Weather in Pervomajskoye

Russia / Republic of Crimea     45°42′57″N   33°51′27″E
temp.,
°C
wind,
m/s
gust,
m/s
humid.,
%
clouds,
%
prec.,
mm/h
press.,
hPa
HPBL,
m
27 february, sat
sat2700:00+7sw713880 0.0 1022359
03:00+7sw612900 0.0 1021364
06:00+7sw713910 0.0 1019318
09:00+8sw611860 0.0 1018444
12:00+12wsw69670 0.0 1018655
15:00+12wnw66640 0.0 1018658
18:00+8n468398 0.1 1017520
21:00+6nnw588599 1.4 1019726
28 february, sun
sun2800:00+5nnw5879100 0.2 1019611
03:00+5nnw5877100 0.2 1020503
06:00+4nnw4789100 0.1 1020519
09:00+3nnw5794100 0.4 1021445
12:00+4nnw5777100 0.3 1022747
15:00+5nnw677993 0.6 1022745
18:00+4nw478491 0.1 1022624
21:00+4nw367492 0.3 1023504
1 march, mon
mon100:00+3nw258399 0.1 1024453
03:00+2nw2481100 0.1 1024127
06:00+2wnw128287 0.0 1024110
09:00+3nnw246692 0.1 1026804
12:00+5n335998 0.0 10261077
15:00+5nnw335792 0.1 10271110
18:00+4nnw346691 0.0 1027584
21:00+3nw247885 0.1 1029157
2 march, tue
tue200:00+2nne358298 0.1 1030128
03:000n238291 0.1 103127
06:000nnw12821 0.0 103022
09:00+2wnw247614 0.0 1031292
12:00+5wnw455830 0.0 10301047
15:00+6w686554 0.0 1028866
18:00+5w7117483 0.0 1026679
21:00+4wsw5118272 0.0 1026351
3 march, wed
wed300:00+6wnw4784100 0.0 1026234
03:00+3nnw339167 0.0 102664
06:00+2nnw22930 0.0 102622
09:00+4w34860 0.0 1027201
12:00+9wnw56630 0.0 1027592
15:00+10wnw56550 0.0 1026680
18:00+8w466778 0.0 1026288
21:00+5wsw358339 0.0 1027114